AirNav   Air Wisconsin Up To $57,000 Bonus
 
 568 users online  

52NC Epley Airport
Jacksonville, North Carolina, USA

GOING TO JACKSONVILLE?


FAA INFORMATION EFFECTIVE 17 JUNE 2021

Location

FAA Identifier: 52NC
Lat/Long: 34-50-40.4300N 077-15-58.3200W
34-50.673833N 077-15.972000W
34.8445639,-77.2662000
(estimated)
Elevation: 43 ft. / 13 m (estimated)
Variation: 09W (2000)
From city: 10 miles NE of JACKSONVILLE, NC
Time zone: UTC -4 (UTC -5 during Standard Time)
Zip code: 28555

Airport Operations

Airport use: Private use. Permission required prior to landing
Activation date: 05/2000
Control tower: no
ARTCC: WASHINGTON CENTER
FSS: RALEIGH FLIGHT SERVICE STATION
Attendance: UNATNDD
Wind indicator: yes
Segmented circle: no

Airport Communications

WX ASOS at NCA (12 nm SW): 288.325
WX AWOS-3PT at OAJ (17 nm W): PHONE 910-324-5233
WX ASOS at EWN (18 nm NE): 118.525 (252-514-2086)

Nearby radio navigation aids

VOR radial/distance  VOR name  Freq  Var
EWNr226/17.5NEW BERN VOR/DME113.6008W
ISOr161/34.7KINSTON VORTAC109.6005W

 
NDB name  Hdg/Dist  Freq  Var  ID
KATFI229/14.036208WEW . .--
DIXON037/19.019808WDIW -.. .. .--

Airport Services

Runway Information

Runway 7/25

Dimensions: 2400 x 75 ft. / 732 x 23 m
Surface: turf
RUNWAY 7  RUNWAY 25
Traffic pattern: rightleft
Obstructions: none50 ft. trees, 500 ft. from runway

Airport Ownership and Management from official FAA records

Ownership: Privately-owned
Owner: STEVE EPLEY
265 DEPPE ROAD
MAYSVILLE, NC 28555
Phone 910-330-6745
Manager: LINDA EPLEY
265 DEPPE ROAD
MAYSVILLE, NC 28555
Phone 910-548-8942

Airport Operational Statistics

Aircraft based on the field: 3
Single engine airplanes: 3
    

Additional Remarks

FOR CD CTC WASHINGTON ARTCC AT 703-771-3587.

Instrument Procedures

There are no published instrument procedures at 52NC.

Some nearby airports with instrument procedures:

KNCA - New River Marine Corps Air Station (H) (McCutcheon Field) (12 nm SW)
KOAJ - Albert J Ellis Airport (17 nm W)
KEWN - Coastal Carolina Regional Airport (18 nm NE)
KNKT - Cherry Point Marine Corps Air Station (Cunningham Field) (19 nm E)
KMRH - Michael J Smith Field Airport (31 nm E)
 
Loc | Ops | Rwys | IFR | FBO | Links
Com | Nav | Svcs | Stats | Notes
Area around 52NC (Epley Airport)
 
Road maps at: MapQuest Bing Google
 
Aerial photo
No photo
 
Sectional chart

 
Airport distance calculator
Flying to Epley Airport? Find the distance to fly.

From to 52NC

Sunrise and sunset
Times for 19-Jun-2021
 Local
(UTC-4)
 Zulu
(UTC)
Morning civil twilight05:2709:27
Sunrise05:5609:56
Sunset20:2400:24
Evening civil twilight20:5400:54

Current date and time
Zulu (UTC)  19-Jun-2021 05:46:06
Local (UTC-4)  19-Jun-2021 01:46:06
 
METAR
KNCA 
12nm SW 
190456Z AUTO 20004KT 10SM CLR 23/20 A3003 RMK AO2 SLP173 T02280200 402940183 $
KNJM 
16nm SE 
190457Z AUTO 24011KT 10SM CLR 26/21 A3005 RMK AO2 SLP178 T02610211 402830206
KEWN 
17nm NE 
190454Z AUTO 21006KT 10SM CLR 22/18 A3004 RMK AO2 SLP173 T02170183 403060161
KOAJ 
17nm W 
190456Z AUTO 20005KT 10SM CLR 22/20 A3004 RMK AO2 SLP176 T02170200 403060156
KNKT 
20nm E 
190354Z 19006KT 7SM SKC 22/17 A3004 RMK SLP170 T02170172
TAF
KNCA 
12nm SW 
1903/2003 VRB06KT 9999 SKC QNH3000INS BECMG 1912/1914 21010KT 9999 FEW100 QNH2993INS TEMPO 1915/1921 19010G20KT T21/1908Z T33/1919Z
KEWN 
17nm NE 
181746Z 1818/1918 VRB04KT P6SM FEW060 FM182200 18007KT P6SM SKC FM191300 23008G16KT P6SM FEW250 FM191700 24011G18KT P6SM SCT050
KOAJ 
17nm W 
181746Z 1818/1918 VRB04KT P6SM FEW060 FM182100 18007KT P6SM SKC FM191300 23008G14KT P6SM FEW250 FM191700 24010G18KT P6SM SCT060 AMD LTD TO CLD VIS AND WIND
KNKT 
20nm E 
1903/2003 VRB06KT 9999 SKC QNH3002INS BECMG 1912/1914 21010KT 9999 FEW100 QNH2993INS TEMPO 1915/1921 19010G20KT T21/1908Z T31/1919Z
NOTAMs
Click for the latest NOTAMs
NOTAMs are issued by the DoD/FAA and will open in a separate window not controlled by AirNav.

 

 
 

Would you like to see your business listed on this page?

 If your business provides an interesting product or service to pilots, flight crews, aircraft, or users of the Epley Airport, you should consider listing it here.  To start the listing process, click on the button below
 
Add a business
 

Other Pages about Epley Airport

Update a link
 
Copyright © AirNav, LLC. All rights reserved. Privacy Policy  Contact